This demonstration page uses our WeatherBlox Daily Observations layout. Learn more.

Left ArrowRight Arrow

34.16533, -84.80231

Hourly Observations for October 7, 2019

Temp ( °F °C ) Dew Point ( °F °C ) Humidity (%) Winds ( mph kmh ) Pressure ( in mb ) Visibility ( mi km ) Precip ( " mm )
12:53 am 00:53 Clear 70 21.1 64 17.8 82 82 VRB 6 9 30.11 1020 10 16 0.00 0.00
1:53 am 01:53 Clear 70 21.1 63 17.2 79 79 VRB 3 6 30.11 1020 10 16 0.00 0.00
2:53 am 02:53 Mostly Cloudy 69 20.6 63 17.2 81 81 ENE 3 6 30.11 1020 10 16 0.00 0.00
3:53 am 03:53 Partly Cloudy 69 20.6 63 17.2 81 81 Calm 30.10 1019 10 16 0.00 0.00
4:53 am 04:53 Clear 67 19.4 63 17.2 87 87 E 3 6 30.08 1019 10 16 0.00 0.00
5:53 am 05:53 Clear 68 20 63 17.2 84 84 E 3 6 30.08 1019 10 16 0.00 0.00
6:53 am 06:53 Partly Cloudy 67 19.4 63 17.2 87 87 Calm 30.08 1019 10 16 0.00 0.00
7:53 am 07:53 Cloudy 67 19.4 63 17.2 87 87 Calm 30.08 1019 10 16 0.00 0.00
8:53 am 08:53 Cloudy 71 21.7 64 17.8 79 79 E 3 6 30.09 1019 10 16 0.00 0.00
9:46 am 09:46 Cloudy 71 21.7 64 17.8 79 79 Calm 30.14 1021 10 16 0.00 0.00
9:53 am 09:53 Cloudy 71 21.7 64 17.8 79 79 NNE 5 7 30.12 1020 10 16 0.00 0.00
10:08 am 10:08 Cloudy 72 22.2 64 17.8 76 76 Calm 30.14 1021 10 16 0.00 0.00
10:53 am 10:53 Cloudy with Light Rain 70 21.1 65 18.3 84 84 NNW 3 6 30.13 1020 6 10 0.00 0.00
11:24 am 11:24 Cloudy 71 21.7 66 18.9 84 84 NNW 3 6 30.14 1021 10 16 0.01 0.25
11:53 am 11:53 Cloudy 72 22.2 65 18.3 79 79 Calm 30.11 1020 10 16 0.01 0.25
12:53 pm 12:53 Cloudy 74 23.3 66 18.9 76 76 S 3 6 30.09 1019 10 16 0.00 0.00
1:53 pm 13:53 Cloudy 77 25 64 17.8 64 64 Calm 30.05 1018 10 16 0.00 0.00
2:53 pm 14:53 Cloudy 79 26.1 62 16.7 56 56 NNW 5 7 30.03 1017 10 16 0.00 0.00
3:53 pm 15:53 Cloudy 80 26.7 61 16.1 52 52 VRB 3 6 30.01 1016 10 16 0.00 0.00
4:53 pm 16:53 Partly Cloudy 79 26.1 58 14.4 49 49 NNW 6 9 30.01 1016 10 16 0.00 0.00
5:53 pm 17:53 Mostly Sunny 78 25.6 59 15 52 52 VRB 3 6 30.00 1016 10 16 0.00 0.00
6:53 pm 18:53 Cloudy 76 24.4 61 16.1 60 60 Calm 30.01 1016 10 16 0.00 0.00
7:53 pm 19:53 Cloudy 73 22.8 61 16.1 66 66 Calm 30.01 1016 10 16 0.00 0.00
8:53 pm 20:53 Mostly Clear 70 21.1 64 17.8 82 82 Calm 30.02 1017 10 16 0.00 0.00
9:53 pm 21:53 Clear 69 20.6 63 17.2 81 81 Calm 30.03 1017 10 16 0.00 0.00
10:53 pm 22:53 Mostly Cloudy 67 19.4 62 16.7 84 84 Calm 30.04 1017 10 16 0.00 0.00
11:53 pm 23:53 Cloudy 68 20 63 17.2 84 84 Calm 30.04 1017 10 16 0.00 0.00

Powered by AerisWeather